Flag for U.S.A. Weather past 2 weeks in Manhattan, Kansas, U.S.A.

Now
77 °F

Sunny.


Feels Like: 79 °F
Forecast: 63 / 79 °F
Wind: 5 mph from South

Location: Manhattan Municipal Airport

Current Time: Jul 30, 2014 at 4:55:20 PM

Latest Report: Jul 30, 2014 at 3:52 PM


Visibility: 10 mi

Pressure: 30.08 "Hg

Humidity: 50%

Dew point: 57 °F

Location of ManhattanLocation

Historic Weather in Manhattan — Graph

°F

Manhattan temperature yesterday

Maximum temperature yesterday: 83 °F (at 4:52 PM)
Minimum temperature yesterday: 64 °F (at 2:52 AM)
Average temperature yesterday: 72 °F

Past Weeks' High & Low Weather Summary

 TemperatureHumidityPressure
High106 °F (Jul 25, 3:52 PM)94% (Jul 22, 6:52 AM)30.26 "Hg (Jul 22, 6:52 AM)
Low51 °F (Jul 16, 5:52 AM)23% (Jul 27, 2:52 PM)29.68 "Hg (Jul 25, 6:52 PM)
Average78 °F62%29.99 "Hg
* Reported Jul 15 3:52 PM — Jul 30 3:52 PM, Manhattan, Weather by CustomWeather, © 2014

Note: Actual official high and low records may vary slightly from our data, if they occured in-between our weather recording intervals... More about our weather records

Advertising

Manhattan weather history for previous 24 hours

 ConditionsComfort  
Time TempWeatherWind HumidityBarometerVisibility
3:52 PM
Jul 30
77 °FSunny.5 mph50%30.08 "Hg10 mi
2:52 PM76 °FSunny.5 mph52%30.09 "Hg10 mi
1:52 PM74 °FSunny.3 mph57%30.11 "Hg10 mi
12:52 PM72 °FSunny.5 mph64%30.12 "Hg10 mi
11:52 AM70 °FSunny.6 mph68%30.13 "Hg10 mi
10:52 AM68 °FSunny.6 mph78%30.13 "Hg10 mi
9:52 AM68 °FSunny.6 mph87%30.11 "Hg10 mi
8:52 AM68 °FPassing clouds.No wind87%30.11 "Hg10 mi
7:52 AM66 °FFog.No wind93%30.10 "Hg6 mi
6:52 AM66 °FLight rain. Fog.3 mph93%30.09 "Hg3 mi
5:52 AM66 °FLight rain. Passing clouds.No wind93%30.09 "Hg7 mi
4:52 AM66 °FLight rain. Fog.3 mph93%30.08 "Hg6 mi
3:52 AM65 °FLight rain. Fog.No wind94%30.09 "Hg6 mi
2:52 AM67 °FLight rain. Fog.3 mph87%30.10 "Hg3 mi
1:52 AM72 °FMostly cloudy.6 mph64%30.08 "Hg10 mi
12:52 AM73 °FMostly cloudy.7 mph62%30.09 "Hg10 mi
11:52 PM
Jul 29
72 °FPassing clouds.6 mph64%30.09 "Hg10 mi
10:52 PM72 °FPassing clouds.3 mph66%30.09 "Hg10 mi
9:52 PM73 °FPassing clouds.No wind64%30.06 "Hg10 mi
8:52 PM77 °FPartly sunny.No wind52%30.05 "Hg10 mi
7:52 PM80 °FBroken clouds.8 mph45%30.05 "Hg10 mi
6:52 PM82 °FScattered clouds.5 mph43%30.06 "Hg10 mi
5:52 PM82 °FOvercast.6 mph43%30.08 "Hg10 mi
4:52 PM83 °FSunny.8 mph41%30.09 "Hg10 mi
Weather by CustomWeather, © 2014

See weather overviewHow to use our weather pages